Regional Weather Roundup
Issued by NWS

Home | Current Version | Previous Version | Graphics & Text | Print | Product List | Glossary On
Versions: 1 2 3 4 5 6 7 8 9 10 11 12 13 14 15 16 17 18 19 20 21 22 23 24 25 26 27 28 29 30 31 32 33 34 35 36 37 38 39 40 41 42 43 44 45 46 47 48 49 50
000
ASUS43 KDTX 261101
RWRMI
MICHIGAN HOURLY REGIONAL WEATHER ROUNDUP
NATIONAL WEATHER SERVICE DETROIT/PONTIAC MI
700 AM EDT WED JUL 26 2017

NOTE: "FAIR" INDICATES FEW OR NO CLOUDS BELOW 12,000 FEET WITH NO
SIGNIFICANT WEATHER AND/OR OBSTRUCTION TO VISIBILITY.

MIZ047>049-052>055-059>063-066>070-074>076-081>083-261200-
SOUTHEAST LOWER MICHIGAN

CITY           SKY/WX    TMP DP  RH WIND       PRES   REMARKS
ADRIAN         CLOUDY    57  56  96 W3        30.18R
ALMA           CLOUDY    60  56  86 S5        30.14F
ANN ARBOR      PTCLDY    54  54 100 MISG      30.17R FOG
BAD AXE        CLOUDY    62  59  91 S6        30.15F
CARO           CLOUDY    62  58  88 CALM      30.16R
DETROIT CITY   PTCLDY    64  60  87 SE3       30.17S
DETROIT        CLOUDY    63  59  87 S3        30.17S
FLINT          CLOUDY    61  59  93 SW5       30.17S
GROSSE ILE     PTCLDY    69  60  73 SW6       30.16R
HILLSDALE      PTCLDY    57  55  94 SE3       30.16S FOG
HOWELL         CLOUDY    62  58  90 S5        30.17R

CITY           SKY/WX    TMP DP  RH WIND       PRES   REMARKS
JACKSON        PTCLDY    63  59  87 S5        30.16S
LAMBERTVILLE   CLEAR     56  55  98 CALM      30.16S
LANSING        MOCLDY    62  56  80 S7        30.15S
LAPEER         FAIR      61  60  96 CALM      30.17F
MASON          MOCLDY    59  58  96 CALM      30.16S
MONROE         PTCLDY    57  56  97 CALM      30.16R
MT. CLEMENS    PTCLDY    65  60  86 S8        30.15F
PONTIAC        CLOUDY    62  61  96 S5        30.16S
PORT HOPE        N/A     64  59  83 VRB5      30.13F
PORT HURON     CLOUDY    57  57 100 CALM      30.17S
TRI CITIES     CLOUDY    64  61  90 S7        30.14R
MIDLAND        CLOUDY    64  57  78 S5        30.13S
TROY           PTCLDY    64  60  87 CALM      30.18S
SAGINAW HB     CLOUDY    63  59  88 S7        30.14R
$$
MIZ043>046-050>051-056>058-064>065-071>073-077>080-261200-
SOUTHWEST LOWER MICHIGAN

CITY           SKY/WX    TMP DP  RH WIND       PRES   REMARKS
BATTLE CREEK   PTCLDY    62  59  90 S7        30.15S
BENTON HARBOR  MOCLDY    65  59  81 S3        30.12R
BIG RAPIDS     MOCLDY    64  56  77 S6        30.09F
COLDWATER      CLEAR     60  60 100 SE6       30.14F
FREMONT        FAIR      62  58  88 SE6       30.09F
HOLLAND        CLOUDY    62  58  86 S6        30.12F
GRAND RAPIDS   CLOUDY    64  59  83 S7        30.13S
IONIA          FAIR      62  57  85 S3        30.13F
KALAMAZOO      PTCLDY    63  57  81 S5        30.15S
LUDINGTON      CLOUDY    67  63  86 S6        30.07S
MARSHALL       PTCLDY    61  60  97 CALM      30.15S
MOUNT PLEASANT CLOUDY    64  55  71 S5        30.12S
MUSKEGON       CLOUDY    67  60  78 S8        30.09F
SOUTH HAVEN    PTCLDY    64  61  90 CALM      30.12S
$$
MIZ016>042-261200-
NORTHERN LOWER MICHIGAN

CITY           SKY/WX    TMP DP  RH WIND       PRES   REMARKS
ALPENA         CLOUDY    65  60  84 S8        30.10R
BEAVER ISLAND  DRIZZLE   64  62  93 S14G21    30.01F
BELLAIRE       RAIN      62  60  92 CALM      30.06F
CADILLAC       CLOUDY    66  55  68 SW7       30.10R
CHARLEVOIX     HVY RAIN  63  63 100 S8        30.08S
FRANKFORT      CLOUDY    68  64  85 S8        30.05S
GAYLORD        LGT RAIN  62  57  83 SW14      30.11R
GRAYLING       LGT RAIN  64  56  75 CALM      30.13R
HARBOR SPRINGS RAIN      63  62  94 SW8       30.08R
HOUGHTON LAKE  CLOUDY    65  56  72 S6        30.11F
MANISTEE       CLOUDY    65  61  87 VRB3      30.06S
OSCODA         MOCLDY    66  56  71 SW9       30.12S
PELLSTON       RAIN      64  61  90 VRB6      30.06R
ROGERS CITY    CLOUDY    65  58  79 S7        30.08S
TRAVERSE CITY  TSTM      66  61  84 SE7       30.05F
$$
MIZ007>008-015-261200-
EASTERN UPPER MICHIGAN

CITY           SKY/WX    TMP DP  RH WIND       PRES   REMARKS
KINROSS        LGT RAIN  64  61  90 S8        30.00F
MACKINAC ISLAN HVY RAIN  65  62  91 SW8G18    30.02S
NEWBERRY       CLOUDY    63  62  97 S17G24    29.97S
S. S. MARIE    CLOUDY    65  61  87 S9        29.97F
MUNISING         N/A     67  65  93 S13G21    29.92S
$$
MIZ004>006-011>014-085-261200-
CENTRAL UPPER MICHIGAN

CITY           SKY/WX    TMP DP  RH WIND       PRES   REMARKS
MANISTIQUE     CLOUDY    65  62  89 S13G20    29.96F
ESCANABA       CLOUDY    66  64  93 S5        29.93F
MENOMINEE      CLOUDY    67  64  90 W7        29.97F
SAWYER-GWINN   PTCLDY    63  61  94 S9        29.94F
$$
MIZ001>003-009>011-084-261200-
WESTERN UPPER MICHIGAN

CITY           SKY/WX    TMP DP  RH WIND       PRES   REMARKS
IRON MOUNTAIN  CLOUDY    69  64  84 VRB6      29.94S
HOUGHTON       CLOUDY    68  65  90 W9        29.89R
COPPER HARBOR    N/A     70  65  84 W5        29.85R
IRONWOOD       CLOUDY    70  68  93 W7        29.96R
$$

ABBREVIATIONS USED IN REMARKS
   TC - TEMPERATURE IN CELSIUS
  WCI - WIND CHILL INDEX
   HX - HEAT INDEX
  VSB - VISIBILITY





USA.gov is the U.S. government's official web portal to all federal, state and local government web resources and services.